Location: Invercargill
(46.4000°S, 168.3500°E)
Time: 17:08:45
(UTC+12:00)

Cosmos 2315 Rocket - Pass Details

Date: 24 January 2019
Orbit: 966 x 1002 km, 82.9° (Epoch: 17 April)

Event Time Altitude Azimuth Distance (km) Brightness Sun altitude
Rises 21:54:23 0° 187° (S) 3,751 7.7 -4.4°
Reaches altitude 10° 21:56:59 10° 184° (S) 2,791 7.0 -4.8°
Maximum altitude 22:03:21 65° 102° (ESE) 1,093 4.2 -5.7°
Drops below altitude 10° 22:09:35 10° 20° (NNE) 2,733 5.9 -6.5°
Enters shadow 22:11:56 - 17° (NNE) 3,607 6.5 -6.8°
